Preview of NWS' New Version of Forecast
This preview is not operational and should not be used for support decisions.
Latest weather observations around

Troy, Troy Municipal Airport (KTOI)

Using International System of Units (Switch to English Units)
Date/ Time (CDT) Wind (kph) Vis. (km) Weather Sky Cond. Temp (°C) Rel. Humidity Wind Chill (°C) Heat Index (°C) Pressure Precip. (cm)
Air Dwpt 6 hour Altimeter (hPa) Sea level (hPa) 1 hr 3 hr 6 hr
Max Min
May 28 03:13 NE 11 8.05 Fog/Mist OVC006 21 20     93%     1008.5   0    
May 28 02:53 NE 13 9.66 Light Rain and Fog/Mist OVC007 21 20     93%     1008.5 1007.9 0    
May 27 23:53 NNE 17 14.48 Light Rain SCT008 BKN014 OVC040 21 20     93%     1010.2 1009.7 0    
May 27 21:53 NNE 11 14.48 Light Rain FEW042 BKN100 21 19     93%     1010.8 1010.4 0 0  
May 27 20:53 NE 11 16.09 Light Rain FEW120 21 19     90%     1010.8 1010.3 0    
May 27 19:53 ENE 9 16.09 Light Rain FEW110 22 19     87%   22 1010.2 1009.8 0    
May 27 18:53 ENE 9 16.09 Light Rain SCT047 SCT075 BKN110 22 20     87%   23 1010.2 1009.7 0   0
May 27 17:53 E 13 16.09 Clear   23 21     87%   23 1010.2 1009.6 0    
May 27 16:53 NE 15 16.09 Light Rain BKN055 BKN075 OVC110 26 20     69%   27 1009.8 1009.4 0    
May 27 15:53 NE 9 16.09 Clear CLR 27 19     61%   28 1010.2 1009.5      
May 27 14:53 NE 17 16.09 Partly Cloudy SCT044 SCT055 28 19     57%   30 1010.8 1010.2      
May 27 13:53 E 21 16.09 Partly Cloudy SCT041 SCT120 29 18     53%   30 1011.2 1010.6      
May 27 12:53 NE 21 16.09 Mostly Clear FEW033 FEW045 29 19     57%   30 1011.5 1011.1      
May 27 11:53 ENE 21 16.09 Mostly Cloudy SCT028 BKN036 28 20     63%   29 1012.5 1011.9      
May 27 10:53 ENE 17 16.09 Clear CLR 26 20     69%   27 1012.9 1012.2      
May 27 09:53 ENE 17 16.09 Clear CLR 24 21     79%   25 1012.9 1012.5      
May 27 08:53 NE 13 16.09 Clear CLR 23 21     87%   24 1013.6 1013      
May 27 07:53 ENE 8 16.09 Clear CLR 22 21     93%   22 1013.6 1013      
May 27 07:35 ENE 9 16.09 Partly Cloudy SCT004 21 20     93%     1013.6        
May 27 07:16 ENE 9 16.09 Mostly Cloudy BKN004 21 20     93%     1013.6        
May 27 06:53 NE 9 14.48 Cloudy OVC003 21 20     93%     1013.2 1012.6      
May 27 06:36 NE 8 12.87 Mostly Cloudy BKN003 21 19     93%     1013.2        
May 27 06:27 NE 8 14.48 Partly Cloudy SCT003 21 19     93%     1013.2        
May 27 05:53 NE 5 16.09 Partly Cloudy SCT085 21 19     93%     1012.9 1012.4      
May 27 04:53 E 5 14.48 Mostly Clear FEW085 20 19     96%     1012.5 1012.2      
May 27 03:53 ENE 8 16.09 Mostly Clear FEW085 21 19     93%     1012.5 1011.8      
May 27 02:53 Calm 14.48 Mostly Cloudy FEW002 BKN095 21 19     93%     1012.5 1012      
May 27 02:06 Calm 12.87 Partly Cloudy SCT002 21 19     93%     1012.9        
May 27 01:53 Calm 11.27 Mostly Cloudy BKN002 21 19     93%     1012.9 1012.2      
May 27 01:49 ENE 5 12.87 Mostly Cloudy BKN002 21 19     88%     1012.9        
May 27 01:34 Calm 9.66 Fog/Mist BKN001 21 19     93%     1012.9        
May 27 01:22 Calm 9.66 Fog/Mist SCT001 21 19     93%     1012.9        
May 27 00:53 Calm 4.83 Fog/Mist FEW110 20 19     96%     1012.9 1012.4      
May 27 00:49 Calm 2.82 Fog/Mist FEW110 20 19     94%     1012.9        
May 27 00:45 Calm 2.01 Fog/Mist FEW110 20 19     96%     1012.9        
May 27 00:41 Calm 2.82 Fog/Mist FEW110 20 19     96%     1013.2        
May 26 23:53 Calm 14.48 Clear CLR 21 20     93%     1013.6 1012.9      
May 26 23:04 Calm 9.66 Fog/Mist CLR 21 21     97%     1013.6        
May 26 22:55 Calm 3.22 Fog/Mist CLR 21 20     93%     1013.6        
May 26 22:53 Calm 2.41 Fog/Mist CLR 21 20     93%     1013.6 1012.9      
May 26 22:50 ESE 5 2.82 Fog/Mist CLR 21 20     94%     1013.6        
May 26 22:27 Calm 16.09 Partly Cloudy SCT017 22 21     93%   22 1013.6        
May 26 22:20 SSE 5 12.87 Mostly Cloudy BKN018 22 21     93%   22 1013.6        
May 26 21:53 Calm 16.09 Clear CLR 22 21     93%   22 1013.6 1013      
May 26 20:53 Calm 16.09 Clear CLR 22 21     93%   23 1012.9 1012.4      
May 26 19:53 SSE 8 16.09 Clear CLR 23 21     87%   23 1011.9 1011.4      
May 26 18:53 SSE 9 16.09 Clear CLR 24 21     84%   25 1011.9 1011.6     1
May 26 17:53 SE 11 16.09 Clear CLR 25 23     88%   26 1011.5 1011.1 0    
May 26 17:08 S 11 4.83 Light Rain and Fog/Mist FEW032 BKN060 OVC100 24 22     88%   25 1011.9   0    
May 26 17:06 SSE 13 2.82 Rain and Fog/Mist SCT030 BKN043 OVC085 24 22     88%   25 1011.9   0    
May 26 17:00 SSE 21 1.61 Heavy Rain and Fog/Mist SCT033 BKN043 OVC060 23 21     87%   24 1012.2   0    
May 26 16:57   2.41 Heavy Rain and Fog/Mist SCT033 BKN045 OVC060 23 21     87%   24 1011.9   0    
May 26 16:53 SSE 24 11.27 Light Rain FEW033 BKN043 OVC060 24 21     79%   25 1011.9 1011.5 0    
May 26 15:53 ESE 9 16.09 Partly Cloudy SCT046 29 19     55%   31 1011.5 1010.9      
May 26 14:53 8 16.09 Clear CLR 30 19     51%   31 1011.9 1011.3      
May 26 13:53 5 16.09 Mostly Clear FEW085 29 19     55%   31 1012.5 1012      
May 26 12:53 5 16.09 Clear CLR 28 20     61%   30 1013.6 1013      
May 26 11:53 Calm 16.09 Mostly Clear FEW037 28 20     61%   30 1014.2 1013.6      
May 26 11:24 ESE 8 16.09 Mostly Clear FEW028 28 20     61%   30 1014.2        
May 26 11:16 ESE 11 16.09 Mostly Cloudy BKN028 28 21     63%   30 1014.6        
May 26 10:53 Calm 16.09 Partly Cloudy SCT030 27 19     62%   29 1014.9 1014.2      
May 26 09:53 Calm 16.09 Mostly Clear FEW017 27 21     69%   28 1014.9 1014.4      
May 26 08:53 Calm 16.09 Clear CLR 25 21     77%   26 1014.9 1014.5      
May 26 07:53 Calm 16.09 Clear CLR 22 21     91%   23 1014.9 1014.5      
May 26 07:18 Calm 16.09 Mostly Clear FEW002 21 20     96%     1014.6        
May 26 06:53 Calm 16.09 Clear CLR 20 19     96%     1014.6 1014      
May 26 06:31 Calm 16.09 Mostly Clear FEW015 19 19     97%     1014.2        
May 26 06:09 Calm 16.09 Mostly Cloudy FEW002 BKN015 19 18     96%     1014.2        
May 26 06:01 Calm 8.05 Fog/Mist FEW002 SCT015 19 18     93%     1014.2        
May 26 05:53 Calm 6.44 Fog/Mist CLR 18 18     97%     1013.9 1013.5      
May 26 05:48 Calm 3.22 Fog/Mist CLR 18 18     100%     1013.9        
May 26 05:30 NW 8 12.87 Partly Cloudy SCT002 19 18     96%     1013.6        
May 26 05:22 Calm 4.83 Fog/Mist BKN002 19 18     96%     1013.6        
May 26 05:19 Calm 2.41 Fog/Mist BKN002 19 18     96%     1013.6        
May 26 05:17 Calm 1.61 Fog/Mist VV002 19 18     96%     1013.6        
May 26 04:53 Calm 0.8 Fog VV002 19 18     96%     1013.6 1012.8      
May 26 03:53 Calm 0.8 Fog VV002 18 18     100%     1013.2 1012.6      
May 26 03:50 Calm 1.21 Fog/Mist VV002 19 18     94%     1013.2        
May 26 03:47 Calm 2.01 Fog/Mist BKN002 19 18     94%     1013.2        
May 26 03:45 Calm 3.22 Fog/Mist BKN001 19 19     97%     1012.9        
May 26 03:39 Calm 4.02 Fog/Mist SCT001 19 18     93%     1012.9        
May 26 03:28 Calm 4.83 Fog/Mist CLR 19 18     93%     1012.9        
May 26 03:25 Calm 2.82 Fog/Mist CLR 19 18     93%     1012.9        
May 26 03:20 Calm 2.01 Fog/Mist CLR 19 18     96%     1012.9        
May 26 03:16 Calm 2.82 Fog/Mist CLR 19 18     96%     1013.2        
May 26 02:53 Calm 11.27 Clear CLR 20 19     96%     1013.2 1012.5      
May 26 02:42 Calm 11.27 Clear CLR 20 19     93%     1013.2        
May 26 02:35 Calm 3.22 Fog/Mist CLR 20 19     93%     1013.2        
May 26 02:33 Calm 2.01 Fog/Mist CLR 19 19     97%     1013.2        
May 26 02:24 Calm 1.21 Fog/Mist CLR 20 19     93%     1013.6        
May 26 02:22 Calm 2.01 Fog/Mist CLR 20 19     93%     1013.6        
May 26 02:20 Calm 2.82 Fog/Mist CLR 20 19     93%     1013.6        
May 26 01:53 Calm 14.48 Clear CLR 21 19     93%     1013.6 1013.1      
May 26 00:53 Calm 12.87 Clear CLR 21 20     96%     1014.6 1014     0
May 26 00:50 Calm 4.83 Fog/Mist CLR 21 19     88%     1014.6        
May 26 00:46 Calm 2.82 Fog/Mist CLR 21 19     93%     1014.6        
May 26 00:40 Calm 2.01 Fog/Mist CLR 20 19     96%     1014.6        
May 26 00:31 Calm 1.21 Fog/Mist CLR 20 19     96%     1014.6        
May 26 00:17 Calm 2.01 Fog/Mist CLR 21 20     96%     1014.6        
May 26 00:15 Calm 2.82 Fog/Mist CLR 21 20     93%     1014.6        
May 25 23:53 Calm 11.27 Mostly Clear FEW070 21 20     93%     1014.6 1014.1      
May 25 23:46 Calm 3.22 Fog/Mist FEW070 21 20     93%     1014.9        
May 25 23:43 Calm 2.01 Fog/Mist FEW002 FEW070 21 20     93%     1014.9        
May 25 23:30 Calm 2.41 Fog/Mist FEW002 FEW070 SCT080 21 20     96%     1014.9        
May 25 23:26 Calm 1.61 Fog/Mist FEW002 SCT070 21 20     96%     1014.9        
May 25 23:16 Calm 1.21 Fog/Mist VV002 21 20     93%     1014.9        
May 25 23:14 Calm 2.41 Fog/Mist FEW002 21 20     93%     1014.9        
May 25 22:53 Calm 12.87 Clear CLR 22 21     93%   22 1015.2 1014.6      
May 25 22:30 Calm 12.87 Partly Cloudy SCT002 22 21     93%   22 1015.2        
May 25 22:04 Calm 6.44 Fog/Mist BKN002 22 21     93%   22 1015.2        
May 25 21:53 SE 5 9.66 Fog/Mist SCT002 22 21     93%   22 1015.2 1014.7 0 0  
May 25 21:27 Calm 12.87 Mostly Clear FEW002 22 21     96%   22 1014.9   0    
May 25 20:53 Calm 16.09 Light Rain SCT110 22 21     93%   23 1014.9 1014.5 0    
May 25 19:53 Calm 16.09 Light Rain SCT110 22 21     93%   23 1014.2 1013.9 0    
May 25 19:14 ENE 5 16.09 Light Rain FEW003 SCT100 SCT120 22 21     93%   23 1014.2   0    
May 25 19:04 Calm 16.09 Thunderstorms SCT095 BKN120 22 21     93%   23 1013.9        
May 25 18:53 ENE 5 16.09 Cloudy OVC100 23 21     90%   23 1014.2 1013.7 1   2
May 25 18:14 NNW 17 4.83 Thunderstorms and Heavy Rain and Fog/Mist FEW018 BKN034 OVC070 22 21     93%   23 1014.2   1    
May 25 18:10 N 11 2.82 Thunderstorms and Rain and Fog/Mist FEW018 BKN027 OVC050 23 21     87%   23 1014.2   1    
May 25 18:08 NNW 11 1.61 Thunderstorms and Heavy Rain and Fog/Mist FEW016 BKN024 BKN039 23 21     87%   23 1014.2   1    
May 25 18:03 NNW 8 0.8 Thunderstorms and Heavy Rain BKN020 BKN039 BKN047 23 20     84%   23 1014.2   1    
May 25 17:55 SW 21 1.21 Thunderstorms and Heavy Rain FEW012 BKN019 BKN043 23 20     82%   24 1013.9   0    
May 25 17:53   3.22 Thunderstorms and Rain FEW012 SCT019 BKN043 24 21     82%   24 1013.9 1013.3 0    
May 25 17:43 SSW 9 16.09 Thunderstorms FEW044 SCT055 SCT110 26 22     82%   26 1013.2        
May 25 17:19 NE 5 16.09 Mostly Clear FEW044 26 23     85%   26 1013.2        
May 25 17:00 N 13 16.09 Thunderstorms FEW022 SCT042 BKN085 26 21     72%   27 1013.2        
May 25 16:53 NNW 11 16.09 Mostly Cloudy FEW031 SCT049 BKN090 27 22     74%   29 1013.2 1012.7 0    
May 25 16:48 N 13 16.09 Partly Cloudy FEW031 SCT070 SCT095 27 22     74%   29 1013.2   0    
May 25 16:39 N 18 3.22 Light Rain SCT028 BKN042 OVC110 26 23     85%   26 1013.2   0    
May 25 15:53 Calm 16.09 Mostly Cloudy FEW075 BKN095 29 19     55%   31 1013.6 1012.9      
May 25 14:53 SE 11 16.09 Mostly Clear FEW085 30 21     57%   32 1014.2 1013.7      
May 25 13:53 SSE 13 16.09 Mostly Cloudy SCT034 SCT046 BKN060 30 21     57%   32 1014.9 1014.5      
May 25 12:53 S 11 16.09 Clear CLR 29 21     63%   31 1015.9 1015.3      
May 25 12:19 11 16.09 Mostly Cloudy SCT026 SCT031 BKN060 28 21     65%   31 1016.3        
May 25 11:53 5 16.09 Mostly Cloudy BKN026 BKN032 28 21     65%   30 1016.6 1016      
May 25 11:17 S 8 16.09 Partly Cloudy SCT021 27 21     67%   29 1016.9        
May 25 10:53 8 16.09 Mostly Cloudy BKN019 BKN035 27 21     71%   28 1017.3 1016.8      
May 25 10:09 ESE 8 16.09 Cloudy BKN015 OVC022 26 22     77%   28 1017.6        
May 25 09:53 E 9 16.09 Mostly Cloudy BKN013 26 22     79%   26 1017.6 1017.2      
May 25 09:22 5 16.09 Mostly Clear FEW008 23 21     90%   23 1017.6        
May 25 08:53 ESE 5 16.09 Clear CLR 22 21     93%   23 1018 1017.3      
May 25 07:53 Calm 16.09 Clear CLR 21 21     97%     1017.6 1017.1      
May 25 06:53 Calm 8.05 Fog/Mist FEW001 19 19     97%     1017.6 1017.1      
May 25 06:43 Calm 8.05 Fog/Mist SCT002 19 19     97%     1017.3        
May 25 06:38 Calm 3.22 Fog/Mist BKN001 19 19     97%     1017.3        
May 25 06:33 NE 5 2.41 Fog/Mist BKN001 19 19     97%     1017.3        
May 25 06:27 Calm 1.61 Fog/Mist VV001 19 19     97%     1017.3        
May 25 05:53 Calm 0.4 Fog VV002 19 19     97%     1016.9 1016.5      
May 25 05:10 Calm 0.4 Fog OVC002 19 19     97%     1016.6        
May 25 05:02 Calm 1.21 Fog/Mist OVC002 19 19     97%     1016.6        
May 25 04:59 Calm 2.01 Fog/Mist OVC002 19 19     97%     1016.6        
May 25 04:57 Calm 2.82 Fog/Mist OVC002 19 19     97%     1016.6        
May 25 04:53 Calm 6.44 Fog/Mist OVC002 20 19     93%     1016.6 1016      
May 25 04:45 Calm 3.22 Fog/Mist OVC002 19 19     97%     1016.6        
May 25 04:42 Calm 1.61 Fog/Mist VV002 19 19     97%     1016.6        
May 15 10:53 NE 13 16.09 Mostly Cloudy SCT030 SCT045 BKN075 27 19     61%   28 1015.6 1015.2      
May 15 08:53 E 9 16.09 Clear CLR 24 19     74%   25 1015.2 1014.6      
May 15 07:53 E 11 16.09 Partly Cloudy SCT120 22 19     84%   23 1015.2 1014.6      
May 14 23:53 Calm 14.48 Clear CLR 18 18     97%     1014.9 1014.3      
May 13 06:53 Calm 9.66 Fog/Mist CLR 17 17     97%     1019.7 1019.2      
Jun 12 06:39 5 16.09 Mostly Clear FEW002 22 22     100%   23 1021        
Jun 12 05:53 Calm 16.09 Mostly Clear FEW011 21 21     100%     1020.7 1020.1      
Jun 11 21:53 SSW 5 14.48 Cloudy OVC100 23 21     87%   24 1021 1020.3 0 0  
Jun 11 20:00 Calm 16.09 Cloudy OVC070 24 23     96%   25 1019.7        
Notice The following observation data may not be complete
Jun 11 07:13   16.09 Partly Cloudy SCT016          %              
Jun 10 12:53 ESE 15 16.09 Mostly Cloudy FEW050 BKN075 31 18     46%   31 1018.6 1018      
Jun 10 04:53 Calm 16.09 Clear CLR 17 17     100%     1016.3 1015.8      
Jun 09 15:53   16.09 Clear CLR 30 16     42%   30 1013.6 1013.1      
Jun 08 12:53 9 16.09 Mostly Clear FEW040 27 17     53%   28 1012.9 1012.1      
Jun 08 09:53 8 16.09 Clear CLR 23 17     68%   23 1012.9 1012.4      
Jun 08 07:53 NE 13 16.09 Clear CLR 20 17     84%     1012.5 1012.1      
Jun 08 00:53 Calm 16.09 Clear CLR 20 19     96%     1010.5 1009.8      
Jun 07 10:53 NE 17 16.09 Mostly Cloudy BKN019 BKN024 BKN032 26 21     74%   28 1007.8 1007.2      
Notice The following observation data may not be complete
Jun 06 03:28   12.87 Partly Cloudy FEW002 SCT015          %              
Jun 05 22:53 Calm 16.09 Cloudy SCT024 BKN050 OVC095 22 22     100%   23 1010.5 1010      
Jun 05 16:53 S 13 16.09 Mostly Clear FEW032 27 22     72%   29 1009.2 1008.5      
Jun 05 15:53 SSE 13 16.09 Mostly Clear FEW018 26 23     82%   28 1009.2 1008.5   0  
Jun 05 14:32 S 8 16.09 Mostly Clear FEW007 24 23     94%   25 1010.5   0